カタログに戻る

SHIYAN 24C 03

運用中科学SSO
NORAD 58652·PAYLOAD·🇨🇳 China

打ち上げ Dec 25, 2023 から South China Sea Launch Area

Loading…

次のパス (今後24時間)

TLE

古いSource: Space-Track

元期: Jun 17, 2026, 14:48 UTC

1 58652U 23206C   26168.61686718  .00001145  00000-0  10098-3 0  9997
2 58652  97.4058 136.3426 0002551  71.8845 288.2656 14.98238781135368

AllMySatでSHIYAN 24C 03をリアルタイム追跡

Download on the App Store